GOKTURK 2

Last updated on Thu Mar 05 2026 00:02:39 GMT+0000 (Coordinated Universal Time)

1 39030U 12073A 26063.57711573 .00000411 00000+0 67410-4 0 9998 2 39030 97.6882 266.2077 0001216 55.2670 304.8654 14.75424824709087
UTC large
Height (km)
Speed (km/s)
/
Latitude / Longitude
Inclination (degrees)
Orbital Period (minutes)
Azimuth
Elevation
Range (km)
Doppler Factor

Next 0 passes for location: London (51.5072 / 0.1276)

Sorry there are no passes over London.